Overview Statistics Trail Chart Weather Telemetry Raw packets
 

This is the latest recevied weather packets stored in our database for station/object KG7FOQ-13. If no packets are shown the sender has not sent any weather packets the latest 10 day(s).

<< 8 9 10 11 12 13 14 >>
Time Temp. Humidity Pressure Rain* Wind** Luminosity Snow
1788552179 18.33° C 52% 1013.5 hPa 0 mm - - -
1788551879 18.33° C 53% 1013.5 hPa 0 mm - - -
1788551578 18.33° C 52% 1013.5 hPa 0 mm - - -
1788551278 17.78° C 53% 1013.6 hPa 0 mm - - -
1788550977 17.78° C 55% 1013.7 hPa 0 mm - - -
1788550751 17.22° C 54% 1013.8 hPa 0 mm - - -
1788550677 17.22° C 54% 1013.8 hPa 0 mm - - -
1788550376 17.22° C 55% 1013.8 hPa 0 mm - - -
1788550076 17.22° C 56% 1014 hPa 0 mm - - -
1788549775 17.22° C 55% 1014 hPa 0 mm - - -
1788549474 16.67° C 57% 1014.2 hPa 0 mm - - -
1788549174 17.22° C 56% 1014.1 hPa 0 mm - - -
1788548874 17.22° C 58% 1014.2 hPa 0 mm - - -
1788548573 16.67° C 58% 1014.3 hPa 0 mm - - -
1788547972 16.67° C 59% 1014.3 hPa 0 mm - - -
1788547671 16.11° C 60% 1014.4 hPa 0 mm - - -
1788547371 16.11° C 61% 1014.5 hPa 0 mm - - -
1788547070 15.56° C 61% 1014.7 hPa 0 mm - - -
1788546800 16.11° C 62% 1014.7 hPa 0 mm - - -
1788546769 16.11° C 62% 1014.7 hPa 0 mm - - -
1788546468 15° C 64% 1014.8 hPa 0 mm - - -
1788546168 16.11° C 62% 1014.9 hPa 0 mm - - -
1788545867 15.56° C 66% 1014.9 hPa 0 mm - - -
1788545567 15° C 65% 1015.1 hPa 0 mm - - -
1788544966 15° C 63% 1015.1 hPa 0 mm - - -

* Rain latest hour (hover to see other rain measurements)
** Current wind speed in m/s (hover to see current wind gust speed)